Wind_Speed
16 15 18 20 19 19 20 20 15 11 10 9 8 7 8 8 8 8 8 7 9 11 11 13 13 13 13 12 11 15 17 17 16 13 13 15 16 17 17 16 17 17 16 16 15 13 12 12 10 9 10 12 14 14 15 16 17 18 17 17 18 17 17 16 14 12 13 14 14 15 15 14 13 13 13 13 13 14 15 14 11 10 9 7 6 7
16 16 19 19 17 17 19 21 19 18 16 12 9 9 10 11 9 9 9 8 10 13 13 13 14 15 16 14 13 16 18 18 19 17 16 16 16 17 17 16 16 17 18 18 18 16 14 13 13 12 10 12 15 16 18 18 18 18 18 18 17 16 16 16 14 12 12 14 13 15 14 12 12 13 13 13 14 14 13 12 10 8 7 7 7 8
17 19 19 16 19 23 22 21 19 17 13 10 10 11 12 10 9 9 9 8 9 10 12 12 13 15 16 15 15 17 19 19 20 21 20 18 18 18 17 15 14 16 17 18 19 18 16 15 14 13 12 12 14 16 19 19 18 18 18 18 17 16 15 15 15 13 12 13 15 15 13 12 12 13 13 14 14 14 12 11 11 10 9 8 8 8
15 17 16 19 25 26 22 20 17 13 11 11 11 12 12 8 7 8 6 5 8 10 11 11 12 15 16 17 17 18 20 19 19 22 23 22 21 20 19 16 15 15 17 19 19 19 19 17 16 15 13 12 12 14 17 18 18 17 17 18 17 15 15 16 16 14 13 14 16 15 13 12 13 14 14 14 13 13 12 11 11 10 9 8 8 8
14 12 15 22 26 21 17 18 16 13 12 13 15 15 13 9 8 9 8 7 11 13 14 12 13 16 18 19 18 18 21 21 19 20 22 24 24 22 20 19 17 16 17 20 21 20 20 19 17 16 15 13 12 12 15 17 18 18 17 18 17 16 15 17 16 15 14 15 15 14 13 13 14 15 15 14 13 12 11 11 10 9 9 8 8 7
14 16 18 18 19 17 15 15 15 15 14 13 15 16 15 13 12 12 11 10 11 13 13 11 11 13 15 16 16 16 18 20 20 20 21 23 25 25 22 19 19 19 18 20 21 21 21 21 20 18 17 15 14 15 15 17 18 18 18 17 16 17 16 16 15 14 14 15 14 13 12 12 13 14 14 14 13 11 11 11 10 10 9 8 8 7
14 19 20 14 13 15 14 14 15 15 15 13 13 12 12 13 13 12 10 10 10 9 8 10 10 10 9 11 13 14 14 16 19 22 21 22 24 26 26 22 21 24 22 19 21 23 22 23 22 21 19 17 16 17 17 18 19 19 19 17 16 17 16 15 15 13 13 14 14 13 14 14 14 14 14 13 13 13 13 12 11 10 10 9 9 8
17 20 19 15 12 11 13 13 13 15 14 11 10 7 7 9 10 10 10 12 10 6 6 11 11 11 13 12 10 12 14 14 18 23 23 24 26 28 30 27 26 29 25 20 22 24 24 24 24 23 21 19 18 18 18 19 20 20 20 18 16 16 16 15 15 12 11 13 16 17 16 16 15 14 13 13 13 14 13 12 11 11 11 10 10 9
16 19 19 17 14 12 13 12 11 13 12 10 8 5 5 6 8 9 11 12 10 7 10 13 12 11 14 13 10 13 14 11 16 23 24 26 29 32 34 32 31 32 28 23 24 26 26 25 25 25 23 21 21 20 19 19 19 20 20 18 16 16 16 15 14 12 11 13 16 17 15 13 13 14 14 13 13 13 13 12 12 12 11 10 10 9
13 16 15 16 18 16 15 13 12 11 11 11 9 6 5 5 8 9 11 11 9 8 12 13 13 11 11 12 11 11 11 10 14 20 22 25 28 33 36 35 33 30 27 28 28 27 26 25 25 25 24 23 21 18 17 18 18 19 19 17 16 17 17 16 15 13 11 12 14 13 12 13 13 13 13 13 14 14 13 12 13 13 12 11 10 8
14 15 13 14 17 16 14 14 15 13 12 11 9 6 6 6 8 9 10 11 9 10 13 11 12 12 10 9 8 10 12 14 14 13 13 17 21 26 30 31 32 30 27 28 29 27 26 26 25 25 24 22 17 15 15 16 16 18 19 17 17 18 18 17 16 14 13 14 14 13 13 13 13 13 12 13 14 14 14 14 14 14 12 11 9 8
15 14 11 12 15 14 12 13 15 15 13 12 9 8 8 9 9 10 10 10 8 9 9 9 10 12 11 6 6 11 14 14 11 8 8 9 11 17 21 24 32 35 30 27 28 28 27 26 25 25 23 20 16 16 16 15 17 19 18 17 18 19 18 17 15 14 13 14 14 14 14 13 13 14 13 13 14 15 16 16 15 14 12 10 8 7
15 14 12 12 13 14 12 11 14 15 14 13 11 12 12 10 9 10 9 9 9 7 6 6 7 11 13 8 10 15 16 15 11 7 7 6 7 14 19 23 30 35 32 28 28 28 26 24 25 25 23 20 18 19 18 17 18 19 18 18 18 17 16 15 15 14 14 14 15 15 14 13 15 17 15 15 15 17 18 17 16 14 12 9 7 6
12 14 16 16 15 17 17 14 15 16 16 16 15 14 13 9 7 8 8 7 9 6 5 5 7 11 12 10 14 21 21 19 14 8 7 7 9 14 19 24 28 29 28 27 27 27 24 24 25 25 23 21 20 20 20 18 18 18 18 16 16 16 15 16 17 17 17 17 18 18 16 16 17 19 17 16 17 18 19 18 15 13 11 9 6 5
11 11 16 19 18 19 22 21 16 13 15 18 17 15 15 12 9 7 6 6 8 6 5 6 6 10 10 8 12 17 16 15 12 9 9 9 12 16 19 23 25 24 23 23 25 26 23 23 26 25 23 21 21 20 20 19 17 16 15 15 15 15 16 17 19 19 19 19 19 19 19 18 19 19 18 17 18 20 19 17 14 12 10 7 5 4
13 11 11 16 17 17 22 24 19 12 12 15 15 15 15 15 12 7 4 4 5 4 5 7 7 7 6 6 8 10 11 11 10 9 8 8 11 13 16 19 20 19 21 22 24 25 23 24 26 26 23 22 21 21 21 19 16 15 15 16 16 16 17 19 20 19 19 20 21 20 20 19 20 19 18 18 19 20 19 16 14 12 9 7 5 2
12 10 7 13 16 16 17 20 22 17 12 12 14 16 15 13 11 8 4 2 4 6 5 8 10 8 5 4 4 6 9 10 9 9 7 6 7 9 11 14 16 18 20 22 23 24 24 26 27 26 23 22 22 23 21 19 16 15 16 17 17 17 19 21 20 19 20 22 22 21 20 20 20 19 19 19 20 21 19 16 15 13 10 8 6 2
10 8 7 11 15 18 18 18 20 20 14 11 12 14 14 11 10 10 7 5 6 7 5 7 11 10 8 5 4 4 7 8 9 11 8 5 4 5 7 11 14 17 20 21 23 23 24 26 26 25 23 22 22 21 20 18 16 17 18 19 19 19 20 21 21 20 22 24 24 22 21 20 20 20 20 21 21 20 18 17 16 14 11 8 5 3
10 10 8 9 12 15 17 16 17 19 19 15 11 11 11 11 11 11 9 6 6 7 5 7 10 10 8 8 7 5 6 8 12 12 9 6 3 3 5 8 10 13 15 19 21 21 21 23 24 24 22 21 20 19 18 17 17 19 20 20 19 20 20 21 22 22 24 26 25 23 22 21 21 21 22 23 22 20 18 16 14 12 10 9 7 5
11 11 9 10 11 12 15 16 17 18 19 18 14 12 11 10 10 10 10 9 7 6 5 6 7 5 3 7 9 6 5 7 10 10 8 7 7 5 5 8 10 10 11 14 17 17 19 21 22 22 20 20 19 18 17 18 19 22 22 20 19 20 21 22 23 24 25 26 26 25 23 23 22 23 24 24 23 21 19 15 12 11 11 10 9 8
13 12 9 9 11 13 15 17 17 16 16 18 17 16 13 12 12 10 9 11 10 6 4 6 4 3 2 8 12 10 7 7 7 8 8 8 9 9 8 8 11 11 12 15 16 17 19 21 20 19 18 19 19 18 17 19 22 23 22 20 19 20 22 23 24 25 26 26 26 25 24 24 23 23 24 25 24 22 20 17 15 15 14 13 12 10
14 13 13 10 12 14 14 15 16 15 15 16 17 18 16 15 14 11 9 11 12 9 6 7 2 5 3 9 12 11 8 8 7 10 12 10 10 11 11 12 15 16 16 18 17 17 18 19 18 15 14 15 16 17 18 21 22 21 20 21 21 22 23 24 25 25 26 27 27 26 25 25 24 24 24 25 24 23 21 18 18 18 18 16 14 12
17 14 14 14 13 12 11 13 15 14 15 15 15 16 15 15 15 14 10 8 11 11 9 10 4 2 6 8 8 11 9 9 12 14 15 12 10 11 12 13 16 18 19 18 17 16 17 18 16 12 12 14 16 17 18 21 22 20 21 22 22 23 24 25 27 27 28 28 27 27 26 25 24 23 23 23 23 22 21 19 19 20 19 18 16 14
20 15 14 15 14 11 11 14 15 13 13 13 13 15 15 15 16 16 11 5 7 10 10 10 5 4 8 8 7 10 11 10 12 13 13 10 8 9 10 10 13 17 18 16 14 15 15 16 16 15 16 16 16 17 19 22 22 21 22 23 24 25 26 27 29 29 29 29 28 28 27 25 24 23 22 22 21 21 20 19 20 21 21 19 18 15
17 15 14 13 11 11 12 13 14 15 14 11 12 14 15 15 16 18 15 10 10 10 10 10 4 5 7 10 8 9 9 9 9 8 9 9 9 9 9 9 11 13 11 8 8 11 13 14 16 18 19 16 15 18 21 23 23 22 23 25 26 27 27 29 30 30 29 29 29 28 27 25 24 23 21 20 19 20 20 20 21 22 23 21 19 17
15 13 16 14 10 10 11 10 12 14 13 12 14 15 14 15 16 16 15 14 13 11 12 12 5 5 8 12 11 9 8 9 10 8 8 9 10 10 9 9 9 8 5 3 5 8 10 11 12 14 14 12 13 16 19 23 24 22 23 25 25 23 23 25 29 30 31 31 30 30 30 29 26 23 22 21 19 18 20 21 22 23 24 22 21 18
18 16 18 17 12 7 5 6 12 14 11 10 13 16 15 15 17 15 13 14 14 11 12 14 10 8 12 12 9 8 8 8 9 9 9 9 9 9 8 7 7 6 5 5 6 6 7 8 9 9 9 8 10 11 12 17 21 22 23 23 21 20 20 22 27 30 31 32 32 33 32 29 25 22 21 22 20 18 19 21 23 24 25 24 23 20
20 19 21 20 14 9 4 4 9 13 14 13 14 15 15 16 16 16 16 14 12 10 10 13 14 13 13 13 8 7 8 8 8 9 9 9 9 8 8 7 6 6 7 8 8 8 6 6 7 7 7 7 9 10 10 13 17 18 20 21 21 22 23 26 30 31 31 32 31 29 25 22 21 21 21 21 21 21 21 23 23 24 25 25 24 22
19 18 22 21 15 12 9 8 8 10 13 15 15 14 15 15 14 15 18 17 13 11 9 10 14 14 14 14 12 11 10 9 9 9 9 10 9 9 8 8 8 9 10 10 10 8 6 5 6 7 8 9 11 12 13 15 16 17 18 21 25 26 27 29 31 31 30 28 26 24 21 21 22 22 22 23 24 24 24 25 25 25 26 26 24 23
15 14 21 23 19 14 11 10 10 11 11 12 13 13 13 14 13 14 17 19 16 13 9 9 13 17 17 16 14 13 12 10 11 11 10 10 10 10 9 9 10 11 12 11 10 8 6 5 4 4 4 5 5 6 7 8 10 12 14 19 23 26 28 27 27 28 26 24 23 22 20 21 23 23 24 25 27 27 27 28 27 26 26 26 25 24
11 8 14 18 17 16 13 11 10 11 11 12 13 13 12 12 13 14 16 17 14 11 11 13 14 17 18 16 15 15 14 13 13 13 12 11 11 12 11 10 9 10 10 9 8 7 6 5 4 4 4 4 4 4 3 3 4 6 7 9 13 18 24 26 25 25 23 22 24 23 22 23 24 25 27 28 28 28 29 29 30 30 29 26 25 25
10 8 11 14 12 11 12 12 10 9 9 10 11 13 12 11 12 12 14 15 12 10 12 14 14 16 17 17 17 16 15 15 14 13 12 12 12 12 11 10 8 7 7 7 6 7 7 6 6 6 4 4 4 5 5 4 3 4 5 6 7 9 16 22 24 23 22 23 25 25 26 26 24 22 24 26 25 25 27 30 31 31 31 28 26 26
8 8 12 14 11 10 11 11 10 9 7 6 8 10 11 12 12 11 11 13 13 11 10 10 13 17 18 17 18 16 13 13 13 12 12 12 11 10 8 7 6 5 6 6 6 8 8 7 7 7 6 5 5 5 5 5 4 4 6 7 8 9 12 17 20 22 23 24 25 23 24 26 25 23 21 19 19 19 20 25 29 28 27 29 32 32
12 12 13 13 9 9 11 11 11 9 6 5 7 8 8 10 12 11 12 12 12 11 10 9 12 16 17 17 18 16 13 12 12 13 14 13 12 12 11 8 7 7 5 5 5 6 7 8 7 7 7 7 6 4 4 5 5 6 6 7 8 9 11 13 15 15 15 15 17 17 18 20 20 20 16 13 14 15 13 15 20 22 21 23 29 33
15 13 10 8 6 8 12 12 8 5 4 6 8 7 6 6 8 10 12 12 11 12 11 10 11 15 18 19 18 16 13 12 12 13 15 14 13 14 12 8 6 7 7 7 7 6 8 10 9 7 7 7 7 6 5 5 6 7 7 7 7 8 8 9 9 9 8 9 10 12 13 13 12 12 13 14 14 14 13 11 13 15 16 16 18 24
11 9 8 6 5 8 11 9 4 3 4 6 7 6 5 6 6 7 8 8 11 13 12 10 11 15 19 18 17 17 15 14 15 14 13 14 15 14 11 7 6 8 9 9 8 6 8 11 10 8 8 8 8 9 8 8 7 7 7 8 7 7 7 7 7 7 7 7 8 9 10 10 9 8 11 14 16 15 14 13 11 11 13 14 15 18
8 7 7 6 5 6 6 5 5 5 5 4 5 5 5 5 5 6 6 6 8 11 12 10 9 14 18 17 16 19 17 16 18 16 13 16 16 12 11 10 8 9 11 11 9 7 8 10 10 10 10 10 9 9 9 9 8 7 8 8 8 8 8 7 7 6 6 7 7 8 8 8 8 7 9 13 16 15 14 14 13 12 13 15 16 17
11 9 7 6 6 6 5 7 6 4 4 5 6 6 5 4 4 5 5 6 7 10 12 10 7 11 17 17 16 20 20 18 18 15 15 17 16 14 16 14 10 12 16 16 13 12 12 12 11 12 11 10 9 8 8 8 8 8 8 8 9 9 9 9 9 8 7 7 7 7 8 7 7 7 8 11 13 13 13 14 15 14 15 15 16 17
12 13 10 6 7 7 7 6 5 2 3 7 9 7 6 4 4 5 4 5 7 8 11 12 10 12 17 19 19 23 25 23 20 17 17 18 16 15 18 17 14 16 18 16 14 15 15 14 14 15 14 11 10 9 8 7 7 7 8 8 8 8 9 9 9 9 9 9 8 8 8 8 8 8 9 10 12 12 11 12 13 14 13 13 14 15
13 16 13 6 5 8 8 5 4 4 4 9 9 6 5 6 6 5 2 3 6 7 9 12 12 14 19 22 23 25 24 22 21 20 21 20 18 16 16 15 15 16 17 16 15 14 14 14 14 14 12 11 11 10 9 9 9 9 8 8 8 8 8 8 9 9 9 9 9 9 9 9 9 9 10 11 12 12 12 12 13 13 13 12 13 14
11 16 15 9 6 8 8 5 6 5 6 9 8 5 6 8 6 2 1 4 7 7 8 10 9 13 20 23 21 20 18 18 21 23 23 21 19 18 16 14 13 13 14 16 16 15 14 12 11 10 8 9 10 9 9 10 10 10 9 9 9 9 9 10 10 9 10 10 9 9 10 10 10 10 10 10 10 12 12 12 12 13 14 14 15 17
7 9 9 7 5 5 6 8 9 8 8 10 7 5 7 7 2 2 6 10 10 10 12 12 8 12 18 18 15 12 12 16 21 22 21 20 18 17 17 16 15 13 12 12 12 12 12 11 10 10 9 9 9 9 8 8 8 8 7 6 7 8 10 12 13 13 12 12 11 10 10 10 10 10 10 10 10 10 11 12 12 14 14 15 16 17
7 6 5 5 6 5 5 7 6 5 6 8 7 7 8 4 3 8 13 13 12 14 16 15 13 13 14 13 11 11 13 16 18 17 16 16 14 14 15 16 15 13 11 10 9 9 8 8 8 9 9 9 9 8 7 7 7 7 6 5 5 5 6 8 9 10 9 9 9 10 10 10 10 10 10 9 9 8 9 10 11 12 13 13 14 14
8 7 5 5 6 5 5 6 5 5 7 9 7 7 7 5 7 14 16 14 14 16 17 17 16 14 12 11 13 15 16 16 15 14 13 13 11 10 11 12 12 10 8 8 8 7 7 7 7 8 8 8 6 5 5 6 5 5 5 4 4 4 4 5 5 5 5 5 5 6 7 8 9 9 8 8 8 8 8 9 10 11 12 12 13 14
10 10 8 8 10 11 11 9 7 6 6 7 8 8 6 6 10 14 14 14 15 16 17 16 15 14 13 12 13 15 14 13 13 13 13 11 10 9 10 11 11 9 8 8 7 6 6 6 6 6 7 6 4 3 3 4 4 4 4 3 3 3 4 4 4 4 5 5 5 6 6 7 8 8 8 8 8 9 10 11 12 13 13 14 15 16
17 17 16 16 18 17 16 13 9 6 5 5 8 8 6 7 11 14 14 16 19 18 17 15 14 15 14 13 12 12 12 11 11 11 11 11 10 10 9 9 9 8 8 8 7 6 6 6 6 6 6 5 4 3 3 3 3 4 4 4 4 4 4 4 4 4 5 5 6 7 7 7 8 8 9 9 10 10 11 12 13 14 15 16 17 18
15 15 16 17 18 17 17 15 11 8 6 5 7 7 6 8 13 16 17 20 21 19 18 17 16 16 15 13 11 11 11 11 11 10 10 10 9 9 8 8 8 8 8 8 8 8 7 7 7 7 6 6 5 5 5 5 5 6 6 6 6 7 7 7 7 8 8 8 9 9 10 10 10 11 12 12 13 14 14 15 16 17 18 18 19 20
11 13 15 18 21 22 21 18 15 12 10 8 7 8 8 8 10 13 16 19 20 20 20 20 19 18 16 14 13 13 14 14 12 11 10 9 8 7 7 6 6 7 7 8 8 8 8 8 8 8 7 7 7 7 7 8 8 8 8 9 9 9 10 10 11 11 12 13 13 13 13 14 14 15 15 16 16 17 18 18 19 20 21 21 22 23
15 18 19 19 21 21 18 16 15 15 15 14 12 11 10 8 8 11 14 16 18 20 20 20 19 19 18 17 16 15 14 14 12 11 9 8 7 6 6 5 6 6 7 8 8 9 9 10 10 10 10 9 9 9 10 10 10 10 11 11 12 12 13 13 14 15 15 16 17 17 17 18 18 19 19 19 20 20 21 21 22 22 22 23 23 24
16 17 17 16 17 16 13 11 11 13 17 18 16 16 16 13 11 13 14 15 16 18 17 15 15 15 15 14 14 13 12 11 11 9 7 6 6 6 6 6 6 7 7 8 9 10 10 11 11 11 12 11 11 11 12 12 13 13 14 14 14 15 15 15 16 16 17 18 18 19 19 20 20 21 22 22 22 23 23 23 23 23 23 23 22 22
15 14 11 11 14 16 14 12 10 11 14 16 15 16 17 16 14 14 14 15 16 15 14 12 11 11 10 9 9 9 8 8 6 5 4 4 5 5 6 7 7 8 9 10 10 11 11 12 12 12 12 12 13 13 13 14 14 15 15 15 15 15 16 16 17 17 18 18 19 19 20 20 20 21 21 21 22 22 23 23 23 23 23 23 22 22
Wind_Direction
205 205 208 210 216 221 222 216 213 225 221 217 229 243 245 249 248 231 231 250 258 261 257 248 243 244 240 233 247 250 235 233 236 226 217 215 212 207 199 195 196 197 193 196 203 197 186 176 166 173 186 194 202 207 213 218 223 227 227 227 230 236 246 247 242 243 235 227 223 221 221 217 215 212 203 201 200 194 190 198 211 209 201 206 211 218
207 209 218 219 222 220 220 220 221 227 232 235 240 252 253 251 252 238 241 257 261 265 261 252 248 246 244 238 245 249 235 231 235 231 223 219 216 214 211 207 206 205 199 198 203 201 195 190 180 177 185 196 204 209 213 217 219 221 223 226 228 231 238 242 241 233 224 224 225 223 219 206 204 207 198 191 190 189 190 197 207 215 215 213 215 223
212 220 223 221 224 222 224 229 231 233 237 238 238 248 253 250 251 248 252 259 261 265 261 255 252 249 246 240 245 248 236 230 234 233 230 227 224 221 220 218 214 214 208 204 206 206 205 202 195 186 185 194 202 207 211 214 217 221 226 232 234 230 230 236 237 229 216 216 220 220 212 198 198 197 190 186 186 188 194 198 200 204 208 212 221 229
213 226 221 222 229 229 232 234 228 228 232 234 236 241 247 247 248 250 247 252 262 262 254 256 260 255 249 243 246 247 237 232 233 234 234 234 232 229 229 227 221 217 215 215 213 211 213 211 204 197 190 192 200 206 213 215 217 223 230 240 243 238 232 229 227 220 211 209 212 213 205 197 193 187 186 187 187 191 192 192 194 198 205 217 226 230
218 222 214 227 236 230 228 230 224 227 237 240 240 240 245 248 253 259 257 266 276 266 251 252 262 257 248 242 242 244 243 238 235 237 237 237 237 235 235 231 227 222 216 218 219 215 217 218 213 207 198 197 202 207 216 221 221 224 231 240 244 243 240 234 222 209 203 202 203 205 203 197 191 185 186 186 187 189 188 189 194 200 209 215 216 213
228 235 228 234 240 224 216 227 226 229 240 246 246 247 252 254 260 265 259 261 268 257 239 234 250 251 238 233 232 235 243 240 235 236 236 238 239 238 236 231 231 232 223 218 222 218 216 220 218 212 205 203 206 209 216 223 225 228 230 232 237 241 241 240 229 206 196 197 195 196 198 195 188 184 186 187 185 184 185 190 196 200 203 198 193 190
227 239 238 232 230 217 214 227 229 229 237 246 250 254 257 253 253 253 240 235 246 248 221 210 238 255 233 225 227 225 229 232 235 236 233 234 237 239 237 230 228 236 231 218 220 220 216 219 220 215 210 207 209 211 214 219 224 229 229 226 231 237 236 236 234 214 196 193 188 187 188 184 180 182 187 189 185 182 184 189 194 194 190 184 181 180
223 230 230 217 210 210 214 223 228 225 228 243 251 248 250 243 237 233 223 224 236 253 221 205 229 261 254 239 226 222 224 227 237 239 234 232 232 232 233 229 227 234 233 218 216 219 216 219 220 217 214 210 211 212 213 217 220 224 227 225 227 232 230 231 236 228 208 195 187 185 182 177 177 181 185 187 187 185 184 187 190 186 180 175 171 168
232 234 234 220 211 215 217 219 225 221 222 240 243 226 228 230 224 219 215 220 228 243 235 216 216 249 259 243 222 228 230 225 240 244 239 234 230 227 227 225 223 228 228 219 217 218 215 216 219 218 215 215 216 213 212 216 218 220 223 224 224 224 224 227 231 228 218 203 190 181 176 177 181 183 184 184 186 188 187 186 184 177 170 165 160 156
243 238 237 224 219 226 228 226 225 218 221 233 230 225 232 221 211 207 209 217 216 231 241 224 211 232 258 244 223 224 221 215 238 251 248 241 235 229 227 224 219 221 222 219 219 219 213 212 216 217 216 220 223 218 217 220 220 221 223 223 222 217 218 222 223 223 219 208 196 182 176 182 187 187 188 186 185 186 186 182 175 168 162 157 153 146
244 239 232 216 215 223 229 229 225 217 219 226 224 225 224 209 203 203 211 219 216 230 240 221 207 229 258 250 220 214 222 230 240 251 255 248 238 230 226 221 215 213 215 215 215 217 213 211 213 214 215 221 226 224 226 229 224 225 228 226 222 215 214 218 220 222 217 206 199 191 184 186 187 186 187 187 187 184 179 175 170 164 159 151 142 134
235 234 222 207 207 211 216 221 216 211 211 215 220 219 211 199 197 205 207 212 227 235 224 206 207 232 248 243 217 223 237 251 253 246 249 246 231 222 217 212 212 215 216 211 210 213 212 211 211 211 214 218 221 226 233 234 227 228 231 228 222 217 215 218 222 226 221 209 202 197 193 192 189 186 184 186 187 180 173 172 168 161 155 146 136 125
223 223 216 212 211 202 199 206 206 206 209 212 216 218 218 203 193 211 208 205 232 227 177 182 208 235 244 242 247 254 259 267 267 253 238 229 216 217 215 211 213 218 218 210 210 212 210 210 208 207 211 213 215 224 231 231 227 228 231 229 227 224 223 224 226 229 227 217 206 200 199 199 194 190 187 186 185 178 172 171 167 162 156 148 141 125
214 217 217 219 222 210 200 199 197 201 209 212 211 213 221 219 201 218 217 210 231 217 171 195 226 241 243 234 245 257 262 266 269 258 235 226 220 222 222 217 216 218 216 208 208 209 207 207 204 203 208 214 219 225 230 230 228 231 233 231 231 232 230 228 225 223 219 212 204 197 195 197 195 192 191 187 183 180 176 173 170 166 162 156 150 128
212 214 214 212 218 213 206 205 201 203 210 210 213 220 229 236 230 230 237 237 237 219 174 183 221 244 239 218 233 251 258 261 269 260 237 231 229 228 225 219 216 215 211 206 205 205 205 204 200 199 204 213 224 230 232 233 231 234 235 229 231 235 232 229 227 223 215 207 201 196 192 192 193 192 193 190 184 181 179 175 174 173 170 167 160 132
219 232 220 208 212 211 210 210 206 212 215 205 210 224 232 235 235 242 277 293 272 255 194 188 221 251 249 228 230 247 255 256 267 263 236 220 222 224 222 216 213 208 203 203 202 200 200 200 197 197 201 211 227 235 237 237 235 234 230 225 228 232 229 227 225 223 219 210 201 197 194 192 193 194 195 193 186 182 180 178 182 184 181 184 183 167
216 228 209 207 211 203 206 209 206 214 217 201 207 220 224 227 232 242 253 248 265 268 218 206 232 232 221 239 230 237 247 245 262 272 255 225 210 206 209 205 201 201 200 200 199 195 194 194 193 195 199 210 226 236 238 237 235 231 225 223 226 229 227 224 218 215 218 214 206 201 199 196 195 196 196 193 187 185 185 186 192 195 195 200 202 214
221 222 198 205 205 192 193 199 205 214 215 204 212 217 216 219 228 237 237 213 224 245 219 215 239 227 206 222 219 222 235 230 248 270 277 258 212 181 189 189 186 192 193 193 193 188 187 191 192 194 199 209 220 230 234 231 230 228 222 221 223 226 226 220 212 209 211 213 210 206 204 200 199 198 197 194 189 188 190 192 197 202 205 210 213 228
226 229 202 191 196 195 194 196 203 212 213 213 218 217 212 217 220 219 227 232 225 239 231 217 235 236 218 208 198 203 220 215 231 252 270 272 241 166 171 186 182 182 187 188 185 182 185 190 194 196 201 210 216 220 222 224 228 226 221 219 221 223 224 218 210 206 207 209 210 208 205 202 200 200 199 197 194 192 190 190 198 209 215 218 215 222
222 230 213 186 192 198 196 202 208 206 209 215 220 222 221 226 226 215 220 231 234 241 236 218 224 227 192 191 198 214 219 211 222 232 242 258 253 229 195 190 186 187 196 193 184 184 190 192 196 201 207 216 220 217 216 222 228 223 216 215 218 221 220 214 208 207 207 208 209 209 206 203 202 201 201 202 201 198 191 193 211 224 222 218 215 222
217 224 218 185 189 202 199 205 212 206 206 211 217 221 217 216 226 230 225 228 242 255 239 235 223 134 153 225 229 232 212 202 238 251 244 246 246 242 232 201 191 198 207 200 192 193 195 195 199 207 215 222 226 223 219 224 230 225 211 206 214 219 216 209 204 205 208 208 209 211 209 207 204 203 203 206 208 205 201 208 223 226 222 217 218 226
212 216 220 201 196 206 202 203 211 212 211 213 219 223 219 215 217 227 225 216 232 249 253 260 245 117 210 244 233 230 202 180 222 259 258 244 230 231 228 209 200 202 204 203 203 201 198 199 203 211 223 233 236 234 229 231 235 225 209 202 208 213 211 205 201 202 206 207 208 211 212 210 207 206 207 208 211 212 210 214 219 219 218 216 218 225
211 210 221 221 214 212 206 205 210 214 213 215 224 225 225 222 217 227 236 209 216 232 242 256 255 153 243 248 221 224 211 185 206 234 245 236 215 209 210 209 208 205 205 206 208 209 207 206 208 221 245 252 249 244 235 234 233 223 212 207 206 207 207 203 199 199 201 205 207 208 210 210 209 210 211 211 212 214 215 217 219 220 218 216 219 225
214 213 221 224 223 225 226 225 228 234 226 217 220 219 221 224 221 230 244 229 222 226 228 244 233 176 231 244 222 222 218 208 215 225 229 218 197 195 196 199 203 203 205 204 201 211 221 222 224 243 262 261 254 249 238 232 228 220 216 213 208 206 202 199 199 198 199 202 205 206 207 208 209 210 211 212 213 215 217 219 222 223 221 219 222 226
213 213 217 217 213 211 216 222 229 235 229 217 220 219 219 223 222 228 234 237 242 232 223 245 237 150 217 243 238 227 217 213 215 211 207 190 173 185 190 187 194 201 201 193 198 218 235 242 240 248 259 258 249 243 232 225 223 218 217 216 213 210 201 196 198 199 200 202 203 204 203 203 205 205 205 208 213 218 220 221 223 224 222 222 225 228
215 211 214 219 222 211 208 212 210 212 212 212 224 229 226 226 225 226 227 231 238 226 217 236 230 147 213 241 242 233 214 205 203 190 187 181 169 174 182 185 200 215 215 210 230 237 246 255 251 245 246 244 242 235 218 211 213 215 217 219 217 212 205 202 202 200 201 202 204 204 202 202 204 202 202 205 207 213 220 222 223 224 223 223 226 229
216 216 217 225 242 238 212 207 202 200 198 203 220 228 228 231 231 225 223 229 234 228 222 232 227 199 216 231 237 236 222 205 199 188 180 178 171 171 177 184 199 219 228 221 221 222 234 246 243 232 227 230 244 242 222 214 215 214 217 221 219 212 210 213 211 206 203 202 205 209 207 206 208 206 209 213 209 208 216 220 222 224 224 224 226 227
209 215 216 220 241 256 240 208 197 195 199 203 215 222 221 228 231 222 222 229 230 228 228 226 220 213 218 221 213 220 230 216 196 192 188 178 171 174 183 188 190 200 206 205 204 204 214 229 231 230 233 242 249 248 237 227 222 219 218 220 220 218 216 216 212 209 209 208 210 215 215 214 217 217 218 222 220 218 219 220 222 223 223 223 223 225
208 216 218 219 238 255 248 236 216 205 210 211 214 220 218 223 225 217 221 224 220 229 238 219 207 208 219 223 209 201 217 219 202 198 198 187 178 179 186 188 182 181 186 190 191 191 197 216 235 242 243 246 247 245 241 231 222 220 218 216 218 218 218 216 210 208 211 213 215 219 219 220 224 226 225 224 224 225 224 222 221 223 224 223 222 222
206 217 223 226 237 247 243 240 229 222 225 221 219 222 220 223 223 219 223 225 224 231 233 211 209 216 222 225 215 201 199 205 209 210 204 190 178 175 182 186 182 179 180 183 182 182 187 198 218 229 223 223 224 226 233 224 207 205 212 217 218 215 213 210 208 210 214 215 218 222 223 225 231 235 234 230 227 228 228 226 223 223 223 223 222 219
193 202 214 218 227 232 229 230 228 223 225 227 229 228 224 224 225 224 225 224 219 218 215 214 221 222 219 215 211 206 196 193 205 211 203 186 172 171 176 178 180 182 185 188 186 179 172 160 163 167 153 145 147 150 151 154 155 161 183 206 210 212 212 207 203 209 213 215 221 227 230 234 236 236 238 238 232 227 228 229 229 228 224 221 221 219
201 202 196 191 198 206 208 214 217 212 209 216 227 228 223 221 221 222 222 215 208 207 207 213 216 214 212 207 204 206 202 198 204 205 194 179 166 167 172 171 173 175 179 188 188 175 163 148 146 153 148 147 152 153 157 165 172 176 188 199 195 201 206 201 200 207 212 216 223 228 233 238 240 238 241 243 237 229 230 232 231 227 221 216 215 215
209 215 207 200 194 182 183 191 189 187 194 200 210 215 216 214 212 212 208 200 200 201 197 204 212 210 208 201 197 202 203 200 203 196 182 168 158 161 170 179 184 175 162 164 171 174 168 155 152 153 150 148 142 141 153 158 166 181 193 204 207 204 199 199 207 215 217 221 226 231 237 242 245 245 246 247 240 234 235 236 232 227 221 219 218 217
205 215 210 207 201 178 173 175 175 186 200 191 194 201 204 208 210 213 211 201 195 191 190 203 209 204 200 193 192 202 204 196 194 185 171 161 161 170 177 182 186 184 176 170 174 183 178 170 172 166 158 158 154 148 157 159 158 162 164 174 192 200 202 206 216 222 219 219 225 229 235 242 243 243 239 233 231 230 229 233 231 226 225 228 229 226
194 201 193 192 190 166 168 178 186 198 185 177 192 202 195 192 201 213 220 219 210 197 194 202 196 192 196 195 191 195 197 189 182 174 168 167 170 176 180 177 174 186 196 192 187 195 190 184 190 189 177 179 178 170 174 177 173 167 163 165 174 183 192 199 208 216 212 210 215 218 224 231 233 233 226 216 216 219 220 225 227 223 224 231 235 231
177 174 167 159 141 149 171 186 190 149 141 173 196 197 185 178 179 196 209 220 223 212 201 204 199 192 195 197 190 186 187 188 181 171 173 183 183 184 192 194 189 194 200 196 191 202 203 195 198 204 203 203 194 181 179 186 189 183 174 171 173 176 183 189 194 197 196 197 202 207 213 218 215 216 216 210 205 205 212 222 225 227 230 232 235 232
195 174 168 163 148 157 162 136 121 130 133 158 184 178 176 177 180 193 193 195 216 215 205 207 205 192 192 194 190 185 185 189 185 175 178 190 191 197 207 206 206 206 204 207 216 232 227 213 206 203 202 208 207 194 183 186 194 200 196 188 180 181 185 190 195 195 190 188 189 193 201 206 205 201 199 202 204 206 215 224 224 224 231 235 237 236
213 198 196 196 188 180 147 126 138 155 145 158 174 172 172 179 187 194 188 191 207 211 207 206 192 185 193 195 192 190 188 189 190 187 189 193 196 204 202 197 205 212 205 204 211 221 227 225 212 193 185 195 209 202 189 189 188 187 194 196 192 192 194 195 198 202 203 204 201 200 203 203 205 204 194 197 208 216 226 232 229 225 229 234 236 234
221 214 213 206 187 185 187 180 166 122 139 176 179 173 171 176 176 172 175 198 206 203 204 200 186 183 192 195 195 192 187 185 190 196 197 193 192 194 190 184 187 194 194 195 200 204 206 205 198 188 183 190 204 207 199 195 190 184 189 195 197 201 205 206 209 211 212 214 216 216 219 215 212 211 206 206 214 221 226 229 227 226 228 232 235 233
220 216 212 209 195 191 193 181 122 93 149 175 174 181 187 172 168 178 187 184 186 192 193 187 185 192 195 195 196 194 189 190 195 193 188 184 182 183 182 177 175 176 176 178 182 186 185 183 181 180 179 182 194 208 212 207 204 204 204 205 207 210 214 219 226 230 230 230 228 227 230 231 227 224 217 213 215 217 219 222 223 227 231 235 240 240
200 204 201 193 191 193 185 152 118 114 146 161 165 186 180 162 163 205 158 133 150 164 158 152 174 203 197 188 185 186 191 199 196 184 175 172 174 176 175 173 171 172 171 170 169 168 170 175 177 177 176 175 180 197 211 212 211 212 213 220 224 227 232 237 239 241 242 242 238 233 232 234 236 238 235 230 223 217 217 219 223 229 234 238 243 244
170 183 189 176 161 175 169 145 127 116 133 155 164 165 156 147 137 136 134 134 136 132 123 121 145 189 187 177 172 173 182 186 178 168 162 163 167 169 168 166 166 166 168 169 168 167 167 170 175 180 185 184 180 182 192 201 204 202 205 216 222 226 235 242 244 245 248 252 251 246 238 233 233 236 239 240 237 229 223 223 227 234 240 244 247 251
129 124 125 129 130 129 122 123 121 111 136 156 159 156 155 147 131 143 141 136 133 126 119 120 135 158 167 169 166 160 163 167 164 159 157 159 161 162 163 162 159 157 161 166 168 170 173 175 181 185 185 180 174 174 181 187 188 186 187 192 196 204 218 230 235 239 245 253 255 249 240 231 226 225 228 231 234 232 227 226 231 238 243 246 250 255
112 113 116 124 127 112 87 96 108 110 138 157 163 167 168 154 151 155 150 142 140 137 134 135 141 147 153 158 157 156 159 163 164 164 164 162 158 158 161 162 159 157 163 168 167 169 175 178 184 188 185 181 179 183 195 199 196 193 195 196 194 196 203 207 210 212 213 220 224 224 222 220 219 220 223 224 226 227 226 228 235 240 243 246 250 253
98 105 113 114 114 108 98 101 111 118 139 162 169 172 170 157 161 165 158 149 150 150 150 153 152 149 148 150 155 161 165 168 169 169 170 172 170 167 165 165 164 164 168 171 175 181 185 189 196 200 202 208 214 207 200 206 210 205 202 202 201 202 206 210 213 219 224 227 228 230 230 229 230 232 232 233 235 237 238 241 245 249 252 255 258 260
101 103 104 103 103 100 92 93 106 122 137 158 168 172 169 157 166 174 166 158 159 159 159 161 159 152 147 147 158 167 169 171 173 171 169 172 174 173 171 169 169 172 175 175 178 188 197 205 211 212 217 224 226 220 213 218 225 226 227 230 236 241 245 249 250 249 251 254 255 256 258 256 255 255 253 253 255 255 256 258 260 262 264 265 266 268
98 99 100 103 105 96 86 87 97 107 115 138 163 171 163 158 173 182 174 163 160 157 154 153 149 144 141 143 157 170 164 157 157 158 156 156 158 163 170 174 176 183 187 188 191 196 205 213 215 215 216 216 217 223 229 230 233 239 246 252 258 264 268 272 273 271 270 270 268 267 267 266 265 264 263 265 266 267 268 269 269 270 270 271 272 272
103 102 101 106 108 100 93 92 93 95 101 113 136 153 157 166 182 184 172 161 154 149 149 147 142 139 141 146 157 166 161 151 146 149 154 155 158 166 176 184 193 203 207 208 209 210 215 224 229 231 230 228 228 232 236 238 241 245 252 258 262 267 272 273 274 275 275 274 274 273 274 273 273 272 271 271 271 272 273 273 273 273 273 273 274 274
110 110 107 106 102 96 92 90 88 89 91 93 102 119 128 138 159 163 159 156 153 150 150 148 143 143 147 152 156 160 159 155 155 159 167 176 186 198 207 213 221 228 231 235 238 238 238 239 242 247 249 249 249 249 250 253 255 256 260 264 265 267 269 270 270 270 270 271 272 273 275 277 278 279 280 280 280 280 279 278 278 278 278 277 277 277
105 105 106 103 98 93 91 89 88 90 91 90 93 100 102 109 129 141 142 144 147 147 145 142 141 143 148 152 156 156 155 157 161 167 177 191 202 213 222 227 234 239 239 241 244 246 247 249 250 252 254 255 256 258 260 262 264 265 266 268 269 271 272 272 272 272 272 272 273 273 274 276 278 279 280 282 284 285 285 285 285 286 286 285 285 283
110 106 105 108 107 104 98 91 86 89 90 89 90 95 98 102 110 117 122 129 137 140 139 137 138 143 149 155 158 159 161 166 173 185 205 224 235 240 241 241 242 242 240 241 242 243 245 247 248 251 253 255 256 258 261 262 264 266 267 268 270 272 273 275 276 276 277 277 278 278 278 278 279 279 280 281 282 284 285 286 287 288 289 290 290 289
Height
3102 3104 3104 3104 3105 3106 3107 3108 3110 3110 3110 3111 3112 3114 3114 3115 3115 3115 3115 3116 3116 3116 3117 3117 3118 3118 3118 3119 3118 3117 3119 3121 3122 3123 3124 3125 3125 3125 3125 3126 3126 3127 3129 3129 3130 3130 3130 3130 3131 3131 3132 3133 3133 3133 3134 3134 3135 3135 3136 3137 3138 3138 3138 3137 3138 3139 3140 3142 3143 3143 3144 3146 3147 3148 3149 3150 3150 3151 3152 3153 3153 3154 3155 3157 3159 3161
3101 3102 3102 3103 3105 3106 3106 3106 3107 3108 3108 3110 3112 3113 3113 3113 3113 3113 3113 3115 3114 3114 3114 3115 3116 3115 3116 3117 3116 3115 3117 3119 3120 3121 3122 3123 3124 3124 3124 3125 3125 3126 3127 3128 3128 3129 3129 3129 3130 3130 3131 3132 3132 3133 3133 3134 3134 3134 3135 3136 3137 3138 3138 3137 3138 3139 3140 3141 3142 3142 3143 3145 3146 3147 3148 3150 3151 3152 3153 3154 3155 3156 3157 3158 3160 3161
3100 3100 3101 3103 3103 3102 3103 3104 3106 3107 3108 3109 3111 3112 3112 3111 3112 3111 3111 3112 3113 3112 3113 3113 3113 3113 3113 3114 3114 3113 3115 3116 3117 3119 3120 3121 3122 3123 3123 3123 3124 3125 3126 3127 3127 3128 3128 3129 3129 3130 3131 3131 3132 3132 3133 3133 3133 3133 3134 3134 3135 3138 3139 3138 3137 3138 3140 3141 3141 3141 3142 3144 3145 3147 3148 3150 3151 3152 3154 3155 3156 3157 3158 3159 3160 3161
3098 3098 3100 3100 3099 3100 3102 3103 3105 3106 3107 3108 3109 3110 3110 3110 3110 3110 3110 3111 3111 3111 3111 3111 3111 3111 3111 3111 3111 3111 3112 3114 3115 3116 3118 3119 3120 3121 3122 3122 3122 3123 3125 3125 3126 3126 3127 3128 3128 3129 3130 3131 3131 3132 3132 3132 3133 3133 3132 3132 3133 3136 3138 3137 3136 3137 3139 3140 3140 3141 3142 3143 3145 3146 3148 3149 3151 3152 3154 3155 3156 3157 3158 3159 3160 3160
3097 3097 3097 3097 3097 3100 3101 3102 3104 3105 3106 3107 3107 3108 3108 3109 3109 3110 3110 3110 3110 3109 3108 3109 3109 3107 3107 3107 3108 3109 3109 3111 3113 3114 3115 3116 3118 3119 3120 3120 3120 3121 3122 3123 3124 3125 3126 3127 3128 3128 3129 3130 3131 3131 3131 3132 3132 3133 3132 3132 3132 3134 3135 3135 3134 3136 3138 3140 3140 3141 3142 3143 3144 3146 3147 3149 3151 3152 3154 3155 3156 3157 3158 3159 3159 3160
3096 3095 3095 3096 3097 3099 3101 3101 3103 3104 3105 3105 3105 3105 3106 3107 3108 3108 3109 3109 3108 3106 3105 3107 3106 3102 3102 3104 3106 3107 3107 3109 3110 3111 3113 3114 3115 3116 3117 3118 3119 3119 3121 3121 3122 3123 3124 3125 3126 3127 3128 3129 3130 3130 3131 3131 3131 3132 3132 3132 3132 3132 3133 3133 3132 3134 3137 3139 3140 3141 3142 3143 3144 3146 3147 3149 3151 3152 3154 3155 3156 3157 3158 3158 3159 3159
3094 3092 3093 3095 3096 3097 3099 3100 3101 3103 3104 3104 3103 3103 3104 3105 3106 3106 3107 3107 3106 3104 3103 3105 3104 3099 3099 3102 3103 3105 3106 3107 3107 3108 3110 3111 3112 3113 3115 3116 3117 3117 3118 3119 3119 3120 3122 3123 3124 3126 3127 3128 3129 3130 3130 3131 3131 3131 3131 3132 3132 3132 3132 3132 3131 3133 3136 3138 3139 3140 3141 3142 3144 3146 3147 3149 3151 3152 3153 3154 3155 3156 3157 3158 3158 3159
3090 3090 3091 3093 3095 3096 3098 3099 3100 3101 3102 3103 3101 3102 3102 3103 3104 3104 3105 3105 3104 3103 3102 3103 3104 3100 3098 3099 3101 3103 3104 3105 3105 3105 3106 3107 3108 3109 3111 3112 3114 3114 3116 3117 3117 3118 3119 3120 3122 3124 3125 3126 3127 3128 3129 3130 3131 3131 3131 3131 3132 3132 3132 3131 3131 3132 3135 3137 3137 3138 3139 3140 3143 3145 3147 3149 3151 3152 3153 3154 3155 3156 3157 3157 3158 3159
3088 3089 3090 3091 3094 3095 3096 3098 3099 3099 3101 3101 3100 3100 3101 3102 3102 3103 3103 3103 3102 3102 3100 3100 3103 3100 3096 3096 3099 3100 3102 3103 3101 3101 3102 3103 3104 3105 3106 3108 3110 3111 3113 3114 3114 3115 3117 3118 3120 3122 3124 3124 3124 3125 3127 3129 3130 3130 3130 3131 3132 3132 3132 3131 3131 3132 3134 3135 3135 3136 3137 3140 3142 3145 3147 3149 3151 3152 3153 3154 3155 3156 3156 3157 3158 3159
3087 3088 3089 3091 3092 3094 3095 3097 3098 3098 3099 3099 3099 3099 3100 3100 3101 3101 3101 3101 3102 3101 3097 3096 3100 3098 3093 3093 3096 3098 3099 3099 3098 3097 3097 3098 3099 3100 3101 3104 3106 3109 3110 3110 3111 3113 3115 3117 3119 3121 3122 3121 3122 3125 3127 3127 3129 3129 3129 3130 3131 3132 3132 3132 3131 3132 3133 3133 3133 3134 3137 3140 3143 3145 3147 3149 3150 3151 3153 3154 3155 3156 3156 3157 3158 3159
3085 3086 3087 3089 3091 3092 3094 3095 3096 3097 3098 3098 3098 3099 3099 3099 3100 3100 3100 3100 3100 3097 3094 3094 3097 3097 3092 3091 3094 3095 3096 3096 3095 3095 3094 3094 3095 3096 3098 3100 3103 3106 3106 3107 3110 3112 3114 3116 3118 3120 3121 3121 3123 3125 3126 3127 3128 3128 3129 3130 3131 3131 3132 3132 3132 3132 3133 3133 3133 3134 3137 3141 3143 3146 3148 3149 3150 3151 3152 3153 3154 3155 3156 3157 3158 3159
3084 3085 3086 3087 3088 3090 3092 3093 3093 3095 3096 3097 3098 3098 3098 3098 3099 3098 3098 3099 3096 3092 3091 3093 3096 3096 3092 3090 3092 3093 3093 3093 3092 3093 3092 3092 3093 3093 3095 3097 3099 3102 3103 3106 3109 3111 3113 3115 3117 3119 3121 3122 3122 3123 3125 3126 3126 3127 3128 3129 3130 3131 3132 3133 3133 3134 3134 3134 3134 3136 3139 3141 3143 3145 3147 3148 3150 3151 3152 3153 3154 3155 3156 3157 3158 3158
3083 3084 3085 3086 3087 3088 3090 3091 3092 3093 3094 3095 3096 3096 3095 3093 3095 3095 3093 3094 3092 3089 3091 3093 3094 3094 3091 3090 3092 3091 3091 3091 3091 3091 3091 3091 3092 3092 3092 3094 3097 3100 3102 3105 3107 3109 3112 3114 3116 3118 3120 3121 3121 3121 3123 3124 3124 3125 3126 3128 3130 3131 3133 3134 3134 3134 3134 3134 3135 3137 3139 3141 3143 3145 3146 3148 3149 3150 3151 3152 3154 3155 3156 3157 3158 3158
3081 3082 3084 3085 3085 3085 3087 3089 3090 3091 3092 3093 3093 3094 3091 3089 3091 3092 3089 3089 3089 3088 3091 3093 3093 3092 3089 3089 3090 3090 3089 3089 3089 3089 3090 3090 3090 3090 3091 3093 3096 3098 3101 3104 3105 3108 3110 3112 3114 3116 3119 3120 3120 3120 3121 3122 3123 3124 3126 3128 3130 3131 3132 3133 3133 3133 3133 3134 3135 3136 3138 3140 3142 3144 3145 3147 3148 3150 3151 3152 3153 3154 3155 3156 3157 3158
3078 3078 3079 3081 3082 3082 3083 3085 3087 3089 3090 3090 3091 3091 3089 3087 3088 3088 3086 3085 3085 3087 3090 3092 3091 3088 3086 3087 3088 3088 3087 3087 3088 3088 3088 3089 3089 3090 3091 3093 3095 3097 3099 3102 3104 3107 3109 3110 3112 3114 3116 3118 3119 3119 3120 3121 3122 3124 3126 3128 3129 3130 3131 3131 3131 3132 3132 3133 3134 3135 3137 3139 3141 3143 3145 3146 3147 3149 3150 3152 3153 3154 3155 3156 3157 3157
3076 3075 3076 3078 3079 3080 3081 3083 3085 3087 3088 3088 3089 3089 3087 3086 3086 3086 3085 3085 3085 3086 3088 3089 3089 3086 3085 3086 3087 3087 3086 3086 3087 3087 3088 3088 3089 3090 3091 3092 3094 3096 3098 3100 3102 3105 3107 3108 3110 3112 3114 3115 3117 3118 3119 3120 3121 3123 3125 3126 3127 3128 3129 3129 3129 3131 3132 3133 3134 3135 3136 3138 3140 3142 3143 3145 3147 3148 3150 3151 3153 3154 3154 3155 3156 3157
3074 3074 3074 3075 3076 3078 3080 3082 3084 3085 3085 3086 3087 3086 3085 3085 3086 3086 3086 3086 3087 3086 3085 3086 3085 3084 3086 3087 3087 3086 3085 3085 3085 3086 3087 3088 3088 3089 3090 3091 3093 3095 3096 3099 3101 3103 3105 3106 3108 3110 3112 3113 3115 3117 3118 3120 3121 3122 3123 3124 3125 3126 3127 3126 3127 3129 3131 3133 3133 3135 3136 3137 3139 3141 3143 3144 3146 3147 3149 3150 3152 3153 3153 3154 3155 3156
3073 3073 3073 3074 3075 3076 3078 3080 3082 3083 3083 3084 3084 3084 3084 3085 3085 3085 3085 3085 3085 3085 3082 3083 3083 3082 3084 3086 3086 3086 3084 3084 3084 3085 3086 3087 3087 3089 3090 3091 3092 3093 3095 3097 3099 3101 3103 3105 3107 3108 3110 3112 3114 3115 3117 3118 3119 3120 3121 3121 3123 3124 3124 3124 3126 3127 3129 3131 3133 3134 3135 3137 3138 3140 3142 3143 3145 3146 3147 3149 3151 3152 3152 3153 3154 3155
3072 3072 3072 3073 3074 3075 3076 3078 3079 3080 3081 3082 3082 3082 3082 3083 3083 3083 3083 3082 3082 3082 3080 3080 3081 3080 3082 3084 3086 3086 3084 3084 3084 3085 3086 3087 3088 3089 3090 3091 3092 3093 3094 3096 3098 3101 3102 3104 3105 3107 3109 3110 3111 3113 3114 3116 3117 3117 3118 3119 3120 3121 3122 3123 3124 3125 3127 3129 3131 3133 3134 3136 3137 3139 3141 3142 3143 3145 3146 3148 3149 3150 3151 3152 3153 3153
3071 3071 3071 3072 3073 3074 3075 3076 3076 3077 3079 3080 3080 3081 3081 3081 3080 3080 3081 3080 3080 3079 3079 3078 3078 3079 3080 3082 3084 3084 3083 3084 3085 3085 3086 3087 3088 3089 3090 3091 3093 3094 3095 3096 3099 3100 3102 3103 3105 3106 3108 3109 3109 3110 3112 3113 3113 3114 3116 3117 3118 3119 3120 3121 3122 3124 3125 3127 3129 3131 3133 3134 3136 3138 3139 3141 3142 3144 3145 3146 3148 3149 3150 3151 3152 3152
3071 3071 3070 3070 3072 3073 3073 3073 3074 3075 3077 3078 3078 3079 3079 3080 3079 3079 3079 3078 3078 3077 3076 3076 3076 3079 3081 3081 3082 3082 3082 3084 3086 3086 3086 3087 3088 3089 3090 3092 3094 3094 3095 3096 3098 3099 3100 3102 3104 3105 3106 3107 3107 3109 3110 3110 3109 3111 3114 3116 3116 3117 3118 3120 3121 3122 3124 3126 3128 3130 3131 3133 3135 3136 3138 3139 3141 3143 3144 3145 3146 3148 3148 3149 3150 3151
3069 3070 3070 3069 3070 3071 3070 3071 3072 3073 3074 3075 3076 3076 3077 3077 3078 3078 3077 3077 3077 3076 3075 3074 3075 3079 3082 3080 3080 3081 3082 3083 3085 3086 3087 3087 3088 3089 3090 3092 3092 3092 3093 3094 3096 3097 3099 3101 3102 3104 3105 3105 3106 3107 3108 3107 3107 3110 3113 3113 3113 3115 3116 3118 3120 3121 3123 3124 3126 3128 3129 3131 3133 3135 3136 3138 3140 3141 3143 3144 3145 3146 3147 3148 3149 3150
3066 3068 3068 3068 3068 3068 3068 3069 3070 3072 3072 3074 3074 3074 3075 3076 3077 3077 3074 3074 3075 3076 3076 3075 3075 3079 3081 3079 3080 3080 3080 3081 3084 3086 3086 3087 3088 3088 3089 3090 3090 3091 3091 3092 3094 3096 3097 3098 3100 3102 3103 3104 3104 3106 3106 3105 3105 3106 3107 3108 3110 3111 3114 3116 3118 3119 3121 3122 3124 3126 3127 3129 3132 3133 3135 3136 3138 3140 3142 3143 3144 3145 3146 3147 3147 3148
3064 3066 3066 3067 3067 3067 3067 3068 3069 3070 3071 3073 3072 3073 3074 3074 3075 3075 3073 3074 3075 3075 3075 3074 3074 3078 3079 3078 3079 3079 3080 3081 3082 3084 3085 3086 3088 3088 3088 3089 3089 3089 3088 3088 3091 3094 3095 3097 3099 3100 3101 3102 3103 3104 3105 3103 3102 3102 3103 3104 3106 3107 3110 3113 3116 3118 3119 3121 3122 3124 3126 3128 3130 3132 3133 3135 3137 3138 3140 3142 3143 3144 3145 3145 3146 3147
3062 3064 3064 3064 3064 3064 3065 3066 3067 3068 3069 3070 3070 3070 3071 3072 3073 3073 3073 3075 3074 3073 3075 3074 3074 3077 3078 3077 3077 3078 3079 3080 3081 3083 3084 3086 3087 3088 3088 3088 3088 3088 3087 3088 3090 3092 3094 3096 3098 3099 3099 3099 3100 3102 3103 3102 3102 3102 3102 3102 3103 3104 3107 3111 3114 3116 3118 3119 3120 3122 3124 3126 3127 3129 3132 3134 3135 3137 3138 3140 3141 3142 3143 3144 3144 3145
3061 3062 3062 3061 3059 3059 3060 3061 3063 3065 3067 3067 3068 3068 3069 3070 3071 3072 3073 3073 3072 3072 3074 3074 3073 3076 3077 3076 3076 3077 3078 3080 3081 3082 3083 3085 3086 3087 3087 3088 3089 3088 3088 3089 3090 3092 3093 3094 3096 3097 3097 3097 3098 3099 3101 3101 3101 3101 3101 3101 3103 3105 3108 3111 3113 3114 3116 3117 3119 3119 3120 3122 3124 3127 3130 3131 3133 3135 3136 3137 3139 3140 3141 3142 3143 3144
3058 3060 3060 3059 3057 3057 3058 3059 3060 3063 3065 3066 3066 3067 3068 3068 3069 3070 3071 3071 3071 3071 3072 3072 3072 3074 3075 3075 3076 3077 3078 3079 3080 3082 3083 3084 3085 3086 3087 3087 3088 3088 3089 3090 3091 3092 3092 3093 3094 3095 3096 3097 3097 3097 3098 3099 3099 3100 3099 3100 3102 3105 3108 3111 3113 3113 3112 3113 3114 3115 3117 3120 3124 3128 3130 3130 3132 3133 3134 3135 3137 3138 3140 3141 3141 3142
3057 3058 3058 3058 3057 3058 3059 3059 3060 3061 3063 3064 3065 3065 3066 3067 3067 3069 3070 3069 3070 3071 3071 3071 3072 3073 3073 3074 3076 3076 3077 3079 3080 3081 3082 3083 3084 3085 3086 3086 3087 3088 3089 3090 3091 3092 3092 3092 3093 3094 3095 3096 3096 3096 3097 3097 3097 3098 3098 3099 3101 3104 3106 3108 3110 3110 3110 3110 3112 3115 3119 3123 3125 3127 3129 3130 3131 3132 3132 3133 3135 3136 3137 3139 3140 3141
3055 3055 3055 3056 3057 3057 3058 3059 3060 3061 3061 3062 3063 3064 3064 3065 3066 3067 3067 3068 3069 3069 3070 3071 3071 3071 3072 3073 3074 3075 3077 3078 3079 3081 3081 3082 3084 3084 3085 3085 3086 3088 3089 3090 3091 3091 3092 3092 3092 3093 3093 3094 3095 3095 3095 3095 3095 3096 3097 3098 3100 3102 3104 3106 3107 3108 3108 3110 3113 3116 3119 3121 3123 3125 3127 3128 3129 3130 3131 3131 3132 3134 3135 3137 3138 3139
3053 3053 3054 3055 3056 3057 3058 3059 3059 3060 3061 3061 3062 3062 3063 3064 3064 3065 3066 3066 3067 3068 3069 3070 3070 3070 3071 3072 3073 3074 3076 3077 3078 3080 3081 3081 3082 3083 3084 3085 3086 3087 3088 3089 3090 3091 3091 3091 3091 3092 3092 3093 3093 3094 3093 3094 3094 3095 3095 3097 3098 3099 3102 3104 3106 3107 3108 3110 3112 3115 3117 3119 3120 3122 3124 3125 3126 3127 3128 3129 3130 3132 3134 3135 3136 3137
3052 3052 3052 3054 3056 3056 3057 3058 3059 3060 3060 3060 3061 3061 3062 3063 3063 3063 3064 3065 3066 3067 3067 3068 3068 3069 3070 3071 3072 3074 3075 3076 3077 3079 3080 3081 3082 3083 3083 3084 3085 3086 3087 3088 3089 3090 3090 3091 3091 3091 3092 3092 3093 3094 3094 3094 3094 3094 3095 3096 3096 3098 3100 3102 3104 3106 3108 3109 3111 3114 3115 3116 3117 3119 3120 3121 3122 3124 3125 3126 3127 3129 3131 3133 3134 3135
3049 3050 3052 3054 3054 3055 3055 3057 3058 3059 3060 3060 3059 3060 3061 3061 3062 3062 3063 3064 3065 3066 3066 3067 3067 3068 3069 3070 3071 3073 3074 3075 3076 3078 3079 3081 3082 3082 3083 3084 3085 3086 3086 3087 3088 3089 3090 3090 3091 3091 3092 3092 3093 3093 3094 3094 3094 3094 3095 3096 3096 3097 3099 3101 3103 3105 3107 3108 3110 3112 3113 3114 3114 3116 3117 3118 3119 3121 3122 3123 3123 3125 3127 3130 3132 3133
3049 3050 3051 3052 3052 3052 3054 3055 3057 3058 3059 3058 3058 3058 3059 3060 3061 3062 3062 3062 3064 3065 3066 3066 3066 3067 3068 3069 3071 3072 3073 3075 3076 3077 3079 3080 3081 3082 3083 3084 3085 3086 3086 3087 3088 3088 3089 3090 3091 3091 3092 3092 3093 3093 3093 3094 3094 3095 3095 3096 3096 3097 3099 3100 3102 3103 3105 3107 3108 3109 3111 3111 3112 3113 3114 3115 3116 3118 3119 3120 3120 3121 3123 3126 3128 3129
3048 3049 3049 3050 3050 3050 3052 3054 3056 3056 3056 3056 3057 3057 3058 3059 3060 3060 3061 3061 3062 3063 3064 3065 3065 3066 3068 3069 3071 3072 3073 3074 3075 3077 3079 3080 3081 3082 3083 3084 3085 3086 3087 3087 3088 3089 3089 3090 3090 3091 3092 3092 3093 3093 3093 3094 3095 3095 3096 3096 3097 3097 3099 3100 3100 3102 3104 3105 3106 3107 3108 3109 3110 3110 3111 3112 3114 3115 3117 3118 3118 3120 3121 3123 3124 3125
3047 3047 3048 3049 3049 3050 3051 3053 3054 3054 3054 3055 3056 3057 3057 3058 3059 3060 3060 3061 3061 3062 3063 3063 3064 3065 3067 3068 3070 3071 3073 3074 3075 3077 3078 3079 3080 3082 3083 3084 3084 3085 3086 3087 3088 3089 3089 3090 3090 3091 3091 3092 3093 3093 3094 3094 3095 3095 3096 3096 3097 3097 3098 3099 3100 3101 3102 3103 3104 3105 3106 3107 3108 3109 3109 3111 3112 3114 3115 3116 3117 3119 3120 3121 3122 3123
3046 3046 3047 3048 3049 3050 3051 3051 3052 3053 3054 3055 3056 3056 3057 3057 3058 3058 3059 3060 3061 3061 3062 3063 3063 3064 3066 3067 3069 3071 3072 3074 3075 3076 3078 3079 3080 3081 3082 3083 3084 3085 3086 3086 3087 3088 3089 3089 3090 3090 3091 3091 3092 3093 3094 3094 3095 3095 3096 3096 3097 3098 3098 3099 3100 3101 3102 3103 3104 3104 3105 3106 3107 3108 3108 3109 3111 3112 3113 3114 3116 3117 3118 3119 3120 3121
3046 3046 3046 3048 3049 3049 3049 3050 3052 3054 3055 3055 3056 3056 3057 3057 3057 3058 3058 3059 3060 3060 3061 3062 3063 3064 3066 3067 3069 3070 3072 3073 3074 3075 3077 3078 3079 3080 3081 3082 3083 3084 3085 3085 3086 3087 3088 3089 3089 3090 3090 3091 3091 3092 3093 3094 3095 3095 3096 3096 3097 3098 3098 3099 3100 3101 3102 3103 3103 3104 3105 3106 3107 3107 3108 3109 3110 3111 3112 3113 3114 3115 3116 3118 3118 3120
3046 3045 3046 3047 3048 3048 3049 3051 3052 3053 3054 3055 3056 3056 3057 3057 3057 3058 3059 3059 3059 3060 3061 3062 3063 3065 3066 3067 3069 3070 3070 3072 3073 3074 3075 3077 3078 3079 3080 3081 3082 3083 3084 3084 3085 3086 3087 3088 3088 3089 3089 3090 3091 3092 3093 3094 3094 3095 3096 3096 3097 3097 3098 3099 3100 3101 3101 3102 3103 3104 3105 3105 3106 3107 3108 3109 3110 3111 3111 3112 3113 3114 3115 3116 3117 3118
3045 3045 3046 3046 3047 3048 3049 3049 3050 3051 3053 3055 3056 3056 3057 3057 3058 3058 3059 3059 3059 3060 3060 3061 3062 3064 3065 3066 3067 3068 3068 3070 3071 3073 3074 3076 3077 3078 3079 3080 3081 3082 3082 3083 3084 3085 3086 3086 3087 3088 3089 3089 3090 3091 3092 3093 3094 3095 3095 3096 3097 3097 3098 3099 3099 3100 3101 3101 3102 3103 3104 3105 3106 3107 3107 3108 3109 3110 3110 3111 3112 3113 3114 3115 3115 3116
3044 3045 3046 3047 3047 3048 3048 3048 3050 3052 3054 3054 3055 3056 3057 3057 3058 3058 3058 3058 3059 3059 3060 3060 3061 3063 3064 3065 3065 3066 3068 3069 3070 3072 3073 3074 3075 3077 3078 3079 3080 3081 3081 3082 3083 3085 3085 3086 3086 3087 3088 3088 3090 3091 3092 3092 3093 3094 3095 3095 3096 3097 3098 3098 3099 3100 3100 3100 3101 3102 3102 3103 3104 3105 3106 3107 3108 3108 3109 3110 3111 3112 3113 3114 3114 3115
3043 3044 3045 3046 3047 3048 3048 3049 3051 3053 3054 3054 3056 3056 3057 3058 3058 3058 3058 3058 3059 3059 3059 3060 3061 3062 3064 3064 3065 3067 3068 3070 3070 3071 3072 3073 3075 3076 3077 3079 3080 3080 3081 3082 3082 3083 3085 3086 3086 3087 3087 3088 3089 3090 3091 3092 3092 3093 3094 3094 3095 3096 3097 3098 3098 3099 3099 3100 3100 3101 3102 3102 3103 3104 3105 3106 3107 3107 3108 3109 3109 3110 3111 3112 3113 3114
3043 3043 3044 3045 3046 3047 3048 3050 3051 3053 3054 3055 3056 3056 3057 3058 3058 3058 3059 3059 3060 3060 3060 3060 3062 3063 3065 3066 3068 3068 3069 3070 3071 3071 3072 3073 3074 3075 3076 3078 3079 3080 3081 3082 3082 3083 3084 3085 3086 3087 3087 3089 3089 3090 3091 3091 3092 3092 3093 3094 3094 3095 3096 3097 3097 3098 3099 3099 3100 3101 3101 3102 3102 3103 3103 3104 3105 3106 3106 3107 3108 3109 3110 3111 3111 3111
3043 3044 3046 3046 3047 3048 3049 3051 3052 3053 3054 3055 3056 3056 3057 3058 3058 3059 3060 3060 3061 3061 3061 3062 3064 3066 3067 3068 3068 3069 3069 3071 3072 3073 3073 3074 3075 3075 3076 3077 3079 3080 3081 3082 3082 3083 3084 3085 3086 3086 3087 3088 3089 3089 3090 3091 3091 3092 3092 3093 3094 3094 3095 3096 3096 3097 3097 3098 3099 3100 3100 3101 3101 3102 3103 3103 3104 3104 3105 3106 3106 3107 3108 3109 3109 3110
3044 3046 3047 3047 3047 3049 3051 3052 3054 3054 3055 3055 3056 3057 3058 3058 3059 3059 3060 3061 3062 3062 3063 3064 3065 3067 3068 3068 3069 3069 3070 3072 3073 3074 3074 3075 3075 3076 3077 3078 3079 3080 3081 3082 3083 3083 3084 3085 3086 3087 3087 3087 3088 3089 3089 3090 3090 3091 3092 3093 3093 3094 3095 3095 3096 3096 3097 3097 3098 3099 3099 3100 3101 3101 3102 3103 3103 3104 3104 3105 3105 3106 3106 3107 3107 3108
3045 3046 3046 3047 3047 3049 3051 3053 3054 3054 3055 3055 3056 3057 3058 3059 3060 3060 3061 3062 3062 3063 3064 3065 3066 3067 3068 3069 3070 3070 3071 3072 3073 3074 3075 3075 3076 3076 3077 3078 3079 3080 3081 3082 3083 3084 3084 3085 3086 3086 3087 3087 3087 3088 3089 3089 3090 3090 3091 3092 3093 3093 3094 3095 3095 3096 3096 3096 3097 3097 3098 3099 3100 3100 3101 3101 3102 3102 3103 3103 3103 3104 3104 3105 3105 3105
3047 3047 3047 3047 3048 3050 3052 3054 3054 3054 3055 3055 3056 3057 3058 3059 3060 3061 3062 3062 3063 3063 3065 3066 3067 3068 3069 3070 3071 3071 3072 3073 3073 3074 3075 3075 3076 3077 3077 3078 3079 3080 3081 3082 3082 3083 3084 3085 3086 3086 3087 3087 3087 3088 3089 3089 3090 3090 3091 3091 3092 3093 3094 3094 3094 3095 3095 3095 3096 3096 3097 3097 3098 3098 3099 3100 3100 3100 3101 3101 3101 3102 3102 3102 3103 3103
3049 3049 3049 3049 3049 3051 3054 3055 3055 3055 3055 3056 3057 3058 3059 3059 3060 3061 3062 3062 3063 3064 3065 3066 3067 3068 3069 3070 3071 3072 3072 3073 3073 3074 3075 3076 3076 3077 3077 3078 3079 3080 3080 3081 3082 3083 3084 3085 3086 3086 3087 3087 3088 3088 3089 3089 3089 3090 3090 3091 3091 3092 3092 3093 3093 3094 3094 3094 3095 3095 3095 3096 3096 3096 3097 3097 3098 3098 3098 3098 3099 3099 3099 3100 3100 3100
3051 3051 3051 3052 3051 3053 3055 3056 3056 3056 3056 3057 3057 3058 3059 3060 3060 3061 3062 3063 3063 3064 3065 3066 3067 3068 3069 3071 3072 3072 3073 3073 3074 3075 3075 3076 3077 3077 3078 3079 3080 3080 3081 3081 3082 3083 3083 3084 3085 3086 3086 3086 3087 3088 3088 3089 3089 3089 3090 3090 3090 3091 3091 3091 3092 3092 3092 3092 3093 3093 3093 3094 3094 3094 3095 3095 3095 3095 3095 3096 3096 3096 3097 3097 3097 3098
3052 3052 3053 3054 3054 3055 3057 3058 3058 3058 3058 3058 3058 3059 3059 3060 3061 3062 3063 3064 3065 3065 3066 3066 3067 3069 3070 3071 3072 3073 3074 3074 3075 3076 3076 3077 3078 3078 3079 3079 3080 3080 3080 3081 3081 3082 3082 3083 3084 3084 3084 3085 3085 3086 3087 3087 3088 3088 3088 3089 3089 3089 3089 3090 3090 3090 3090 3090 3090 3090 3091 3091 3091 3091 3092 3092 3092 3092 3092 3093 3093 3093 3094 3094 3094 3094
3054 3055 3056 3057 3057 3058 3060 3061 3061 3061 3060 3060 3061 3061 3061 3062 3063 3063 3065 3066 3066 3067 3068 3069 3070 3070 3071 3072 3073 3074 3075 3075 3076 3076 3077 3077 3078 3078 3079 3079 3080 3080 3080 3080 3080 3081 3081 3081 3082 3082 3083 3083 3083 3084 3085 3085 3086 3086 3086 3087 3087 3087 3087 3088 3088 3088 3088 3088 3088 3088 3088 3088 3089 3089 3089 3089 3089 3089 3089 3089 3089 3089 3090 3090 3090 3090
3056 3057 3058 3059 3059 3060 3062 3062 3063 3063 3062 3062 3063 3063 3063 3064 3065 3065 3066 3067 3068 3068 3069 3070 3071 3072 3072 3073 3073 3074 3075 3075 3076 3076 3077 3077 3078 3078 3078 3079 3079 3080 3080 3080 3080 3080 3080 3080 3081 3081 3081 3082 3082 3082 3083 3083 3084 3084 3084 3085 3085 3085 3085 3085 3085 3085 3085 3085 3085 3085 3086 3086 3086 3087 3087 3087 3087 3086 3086 3086 3086 3086 3086 3086 3086 3087